FIN7YB EFHK-ESSA

Flight info

Callsign FIN7YB
Flight time 0h 51m
Altitude 30000
Route ADIVO Y365 POGOK DCT RUNGA N872 XILAN
Aircraft A320/M-SDE3FGHIRWY/LB1

Departure

Time 2026-04-25 11:38
Airport Helsinki Vantaa Airport (EFHK)

Arrival

Time 2026-04-25 12:30
Airport Stockholm-Arlanda Airport (ESSA)
Time Latitude Longitude Altitude Speed Heading
2026-04-25 11:12 60.31785 24.97079 167 ft 0 kts 243°
2026-04-25 11:29 60.31791 24.97104 166 ft 4 kts 242°
2026-04-25 11:30 60.31803 24.97153 166 ft 4 kts 248°
2026-04-25 11:30 60.31809 24.97200 166 ft 4 kts 292°
2026-04-25 11:30 60.31794 24.97226 166 ft 4 kts 333°
2026-04-25 11:30 60.31786 24.97235 166 ft 0 kts 333°
2026-04-25 11:34 60.31848 24.97171 166 ft 16 kts 333°
2026-04-25 11:34 60.31950 24.97067 166 ft 17 kts 333°
2026-04-25 11:34 60.32062 24.96951 166 ft 19 kts 332°
2026-04-25 11:34 60.32178 24.96808 166 ft 21 kts 329°
2026-04-25 11:35 60.32306 24.96660 168 ft 21 kts 330°
2026-04-25 11:35 60.32423 24.96526 175 ft 19 kts 330°
2026-04-25 11:35 60.32546 24.96382 174 ft 23 kts 329°
2026-04-25 11:35 60.32699 24.96202 172 ft 26 kts 330°
2026-04-25 11:36 60.32858 24.96016 174 ft 26 kts 330°
2026-04-25 11:36 60.33011 24.95837 180 ft 24 kts 329°
2026-04-25 11:36 60.33148 24.95629 180 ft 25 kts 316°
2026-04-25 11:36 60.33201 24.95386 181 ft 20 kts 246°
2026-04-25 11:37 60.33113 24.95143 178 ft 22 kts 252°
2026-04-25 11:37 60.33113 24.94830 180 ft 22 kts 274°
2026-04-25 11:37 60.33121 24.94546 188 ft 18 kts 273°
2026-04-25 11:37 60.33090 24.94332 194 ft 17 kts 227°
2026-04-25 11:38 60.32964 24.94055 191 ft 54 kts 228°
2026-04-25 11:38 60.32546 24.93136 178 ft 120 kts 227°
2026-04-25 11:38 60.31868 24.91649 326 ft 155 kts 229°
2026-04-25 11:38 60.31134 24.90081 1059 ft 154 kts 228°
2026-04-25 11:39 60.30424 24.88388 1647 ft 165 kts 245°
2026-04-25 11:39 60.30141 24.86068 2162 ft 181 kts 270°
2026-04-25 11:39 60.30462 24.83505 2708 ft 201 kts 294°
2026-04-25 11:39 60.31069 24.80835 3213 ft 223 kts 292°
2026-04-25 11:40 60.31694 24.77763 3782 ft 241 kts 283°
2026-04-25 11:40 60.31734 24.74407 4617 ft 247 kts 265°
2026-04-25 11:40 60.31596 24.70879 5579 ft 250 kts 268°
2026-04-25 11:40 60.31517 24.67391 6470 ft 254 kts 268°
2026-04-25 11:41 60.31452 24.63820 7387 ft 257 kts 268°
2026-04-25 11:41 60.31383 24.60190 8280 ft 261 kts 268°
2026-04-25 11:41 60.31306 24.56505 9170 ft 265 kts 268°
2026-04-25 11:41 60.31222 24.52735 9747 ft 279 kts 267°
2026-04-25 11:42 60.31127 24.48657 10035 ft 300 kts 267°
2026-04-25 11:42 60.31023 24.44387 10716 ft 308 kts 266°
2026-04-25 11:42 60.30914 24.40066 11539 ft 310 kts 266°
2026-04-25 11:42 60.30801 24.35702 12403 ft 311 kts 266°
2026-04-25 11:43 60.30682 24.31331 13236 ft 313 kts 265°
2026-04-25 11:43 60.30561 24.26927 13958 ft 316 kts 265°
2026-04-25 11:43 60.30438 24.22488 14660 ft 318 kts 265°
2026-04-25 11:43 60.30314 24.18002 15367 ft 321 kts 265°
2026-04-25 11:44 60.30189 24.13491 16075 ft 324 kts 265°
2026-04-25 11:44 60.30058 24.08929 16715 ft 328 kts 265°
2026-04-25 11:44 60.29926 24.04301 17388 ft 331 kts 265°
2026-04-25 11:44 60.29793 23.99651 18016 ft 334 kts 264°
2026-04-25 11:45 60.29424 23.95010 18593 ft 336 kts 257°
2026-04-25 11:45 60.28926 23.90394 19200 ft 338 kts 256°
2026-04-25 11:45 60.28421 23.85745 19799 ft 341 kts 256°
2026-04-25 11:45 60.27911 23.81066 20392 ft 343 kts 256°
2026-04-25 11:46 60.27395 23.76348 20991 ft 346 kts 256°
2026-04-25 11:46 60.26873 23.71594 21590 ft 349 kts 255°
2026-04-25 11:46 60.26353 23.66875 22166 ft 351 kts 255°
2026-04-25 11:46 60.25822 23.62054 22732 ft 354 kts 255°
2026-04-25 11:47 60.25283 23.57185 23220 ft 357 kts 255°
2026-04-25 11:47 60.24742 23.52292 23657 ft 360 kts 255°
2026-04-25 11:47 60.24194 23.47349 24089 ft 363 kts 255°
2026-04-25 11:47 60.23641 23.42373 24501 ft 365 kts 256°
2026-04-25 11:48 60.23080 23.37371 24906 ft 368 kts 256°
2026-04-25 11:48 60.22510 23.32325 25328 ft 371 kts 256°
2026-04-25 11:48 60.21934 23.27225 25674 ft 376 kts 256°
2026-04-25 11:48 60.21355 23.22071 26038 ft 379 kts 257°
2026-04-25 11:49 60.20769 23.16883 26421 ft 381 kts 257°
2026-04-25 11:49 60.20176 23.11676 26761 ft 384 kts 257°
2026-04-25 11:49 60.19573 23.06439 27169 ft 386 kts 257°
2026-04-25 11:49 60.18963 23.01177 27569 ft 388 kts 257°
2026-04-25 11:50 60.18556 22.97671 27825 ft 389 kts 257°
2026-04-25 11:50 60.17731 22.90573 28310 ft 392 kts 257°
2026-04-25 11:50 60.17108 22.85217 28666 ft 394 kts 257°
2026-04-25 11:50 60.16482 22.79841 29005 ft 397 kts 257°
2026-04-25 11:51 60.15848 22.74430 29323 ft 399 kts 257°
2026-04-25 11:51 60.15207 22.69018 29415 ft 393 kts 257°
2026-04-25 11:51 60.14588 22.63785 29417 ft 379 kts 257°
2026-04-25 11:51 60.13983 22.58681 29416 ft 374 kts 257°
2026-04-25 11:52 60.12775 22.48571 29434 ft 372 kts 257°
2026-04-25 11:52 60.11563 22.38452 29435 ft 373 kts 257°
2026-04-25 11:55 60.10953 22.29501 30119 ft 356 kts 258°
2026-04-25 11:55 60.10351 22.24705 30428 ft 360 kts 255°
2026-04-25 11:55 60.09625 22.19841 29896 ft 367 kts 253°
2026-04-25 11:55 60.08872 22.14941 29541 ft 369 kts 253°
2026-04-25 11:56 60.08145 22.09990 29400 ft 371 kts 255°
2026-04-25 11:56 60.06813 21.99984 29459 ft 372 kts 256°
2026-04-25 11:57 60.05585 21.89981 29462 ft 371 kts 257°
2026-04-25 11:57 60.04355 21.79951 29461 ft 371 kts 256°
2026-04-25 11:58 60.03102 21.69915 29485 ft 371 kts 256°
2026-04-25 11:58 60.01830 21.59900 29463 ft 372 kts 256°
2026-04-25 11:59 60.00543 21.49876 29459 ft 372 kts 256°
2026-04-25 11:59 59.99246 21.39855 29460 ft 372 kts 256°
2026-04-25 12:00 59.97212 21.24870 29479 ft 372 kts 255°
2026-04-25 12:01 59.95104 21.09942 29481 ft 373 kts 255°
2026-04-25 12:01 59.93705 20.99985 29491 ft 373 kts 255°
2026-04-25 12:02 59.91608 20.85178 29121 ft 369 kts 255°
2026-04-25 12:02 59.90908 20.80277 28832 ft 366 kts 255°
2026-04-25 12:02 59.90209 20.75395 28546 ft 364 kts 255°
2026-04-25 12:03 59.89515 20.70563 28282 ft 362 kts 255°
2026-04-25 12:03 59.88821 20.65746 28002 ft 361 kts 255°
2026-04-25 12:03 59.88130 20.60961 27720 ft 359 kts 255°
2026-04-25 12:03 59.87441 20.56201 27441 ft 357 kts 255°
2026-04-25 12:04 59.86753 20.51470 27179 ft 355 kts 255°
2026-04-25 12:04 59.86298 20.48346 27000 ft 354 kts 255°
2026-04-25 12:04 59.85610 20.43648 26730 ft 353 kts 254°
2026-04-25 12:04 59.84924 20.38977 26503 ft 351 kts 254°
2026-04-25 12:05 59.84232 20.34271 26229 ft 349 kts 254°
2026-04-25 12:05 59.83561 20.29708 25971 ft 348 kts 254°
2026-04-25 12:05 59.82881 20.25107 25716 ft 346 kts 254°
2026-04-25 12:05 59.82203 20.20523 25459 ft 345 kts 254°
2026-04-25 12:06 59.81530 20.15972 25218 ft 341 kts 254°
2026-04-25 12:06 59.80867 20.11501 24867 ft 335 kts 254°
2026-04-25 12:06 59.80210 20.07098 24507 ft 331 kts 255°
2026-04-25 12:06 59.79557 20.02743 24088 ft 326 kts 255°
2026-04-25 12:07 59.78909 19.98442 23704 ft 322 kts 255°
2026-04-25 12:07 59.78269 19.94206 23306 ft 319 kts 255°
2026-04-25 12:07 59.77633 19.90005 22857 ft 316 kts 255°
2026-04-25 12:07 59.77002 19.85841 22438 ft 312 kts 255°
2026-04-25 12:08 59.76380 19.81739 22045 ft 308 kts 255°
2026-04-25 12:08 59.75763 19.77700 21650 ft 304 kts 256°
2026-04-25 12:08 59.75153 19.73696 21249 ft 301 kts 256°
2026-04-25 12:08 59.74565 19.69736 20831 ft 299 kts 257°
2026-04-25 12:09 59.74016 19.65782 20426 ft 296 kts 257°
2026-04-25 12:09 59.73494 19.61900 20033 ft 294 kts 258°
2026-04-25 12:09 59.72970 19.57993 19620 ft 292 kts 258°
2026-04-25 12:09 59.72446 19.54112 19229 ft 291 kts 258°
2026-04-25 12:10 59.71918 19.50250 18829 ft 289 kts 258°
2026-04-25 12:10 59.71389 19.46419 18449 ft 288 kts 258°
2026-04-25 12:10 59.70858 19.42597 18054 ft 287 kts 258°
2026-04-25 12:10 59.70330 19.38798 17649 ft 286 kts 258°
2026-04-25 12:11 59.69802 19.35016 17245 ft 283 kts 258°
2026-04-25 12:11 59.69281 19.31275 16872 ft 281 kts 258°
2026-04-25 12:11 59.68762 19.27556 16495 ft 279 kts 258°
2026-04-25 12:11 59.68246 19.23876 16146 ft 276 kts 258°
2026-04-25 12:12 59.67729 19.20218 15787 ft 274 kts 258°
2026-04-25 12:12 59.67216 19.16597 15429 ft 273 kts 258°
2026-04-25 12:12 59.66711 19.12983 15091 ft 275 kts 259°
2026-04-25 12:12 59.65993 19.09385 14692 ft 288 kts 243°
2026-04-25 12:13 59.64825 19.06125 14205 ft 292 kts 239°
2026-04-25 12:13 59.63590 19.02957 13839 ft 290 kts 238°
2026-04-25 12:13 59.62351 18.99820 13474 ft 289 kts 238°
2026-04-25 12:13 59.61114 18.96699 13055 ft 288 kts 238°
2026-04-25 12:14 59.59880 18.93594 12636 ft 286 kts 238°
2026-04-25 12:14 59.58669 18.90543 12223 ft 285 kts 238°
2026-04-25 12:14 59.57448 18.87468 11814 ft 284 kts 238°
2026-04-25 12:14 59.56232 18.84404 11407 ft 282 kts 238°
2026-04-25 12:15 59.55024 18.81360 10991 ft 281 kts 238°
2026-04-25 12:15 59.53820 18.78323 10588 ft 280 kts 238°
2026-04-25 12:15 59.52624 18.75305 10172 ft 279 kts 238°
2026-04-25 12:15 59.51435 18.72316 9930 ft 273 kts 238°
2026-04-25 12:16 59.50276 18.69418 9656 ft 267 kts 238°
2026-04-25 12:16 59.49127 18.66552 9281 ft 266 kts 238°
2026-04-25 12:16 59.47985 18.63699 8865 ft 265 kts 238°
2026-04-25 12:16 59.46843 18.60855 8439 ft 265 kts 238°
2026-04-25 12:17 59.45701 18.58014 7994 ft 265 kts 238°
2026-04-25 12:17 59.44554 18.55167 7572 ft 265 kts 239°
2026-04-25 12:17 59.43647 18.52115 7149 ft 255 kts 255°
2026-04-25 12:17 59.43071 18.48821 6638 ft 256 kts 257°
2026-04-25 12:18 59.42550 18.45473 6209 ft 257 kts 258°
2026-04-25 12:18 59.42039 18.42163 5789 ft 257 kts 258°
2026-04-25 12:18 59.41506 18.38803 5305 ft 258 kts 258°
2026-04-25 12:18 59.40951 18.35454 4931 ft 257 kts 258°
2026-04-25 12:19 59.40011 18.29844 4714 ft 259 kts 257°
2026-04-25 12:19 59.39267 18.25411 4541 ft 258 kts 257°
2026-04-25 12:19 59.38716 18.22046 4411 ft 259 kts 258°
2026-04-25 12:20 59.38156 18.18687 4284 ft 259 kts 258°
2026-04-25 12:20 59.37590 18.15396 4142 ft 248 kts 257°
2026-04-25 12:20 59.37047 18.12268 4015 ft 236 kts 258°
2026-04-25 12:20 59.36512 18.09309 3949 ft 226 kts 258°
2026-04-25 12:21 59.35987 18.06393 3958 ft 227 kts 257°
2026-04-25 12:21 59.35474 18.03465 3942 ft 227 kts 258°
2026-04-25 12:21 59.34950 18.00543 3953 ft 227 kts 257°
2026-04-25 12:21 59.34637 17.97573 3943 ft 219 kts 274°
2026-04-25 12:22 59.34628 17.94603 3941 ft 218 kts 277°
2026-04-25 12:22 59.34671 17.91622 3945 ft 219 kts 278°
2026-04-25 12:22 59.34714 17.88652 3944 ft 217 kts 277°
2026-04-25 12:22 59.34850 17.85740 3937 ft 211 kts 294°
2026-04-25 12:23 59.35668 17.83487 3953 ft 203 kts 327°
2026-04-25 12:23 59.36965 17.82692 3949 ft 203 kts
2026-04-25 12:23 59.38300 17.83659 3944 ft 214 kts 34°
2026-04-25 12:23 59.39429 17.85602 3944 ft 216 kts 32°
2026-04-25 12:24 59.40727 17.86961 3840 ft 208 kts 14°
2026-04-25 12:24 59.42120 17.87663 3708 ft 206 kts
2026-04-25 12:24 59.43503 17.88186 3575 ft 198 kts
2026-04-25 12:24 59.44826 17.88662 3439 ft 189 kts
2026-04-25 12:25 59.46092 17.89115 3308 ft 181 kts
2026-04-25 12:25 59.47276 17.89541 3259 ft 165 kts
2026-04-25 12:25 59.48378 17.89936 3073 ft 157 kts
2026-04-25 12:25 59.49432 17.90314 2880 ft 150 kts
2026-04-25 12:26 59.50436 17.90674 2676 ft 143 kts
2026-04-25 12:26 59.51386 17.91017 2533 ft 132 kts
2026-04-25 12:26 59.52263 17.91332 2342 ft 125 kts
2026-04-25 12:26 59.53121 17.91639 2168 ft 125 kts
2026-04-25 12:27 59.53972 17.91945 1988 ft 125 kts
2026-04-25 12:27 59.54822 17.92251 1818 ft 122 kts
2026-04-25 12:27 59.55660 17.92553 1646 ft 122 kts
2026-04-25 12:27 59.56505 17.92857 1476 ft 122 kts
2026-04-25 12:28 59.57345 17.93160 1300 ft 121 kts
2026-04-25 12:28 59.58178 17.93461 1121 ft 124 kts
2026-04-25 12:28 59.59031 17.93756 941 ft 126 kts
2026-04-25 12:28 59.59898 17.94056 744 ft 125 kts
2026-04-25 12:29 59.60724 17.94385 605 ft 123 kts
2026-04-25 12:29 59.61585 17.94685 410 ft 128 kts
2026-04-25 12:29 59.62458 17.95021 213 ft 125 kts
2026-04-25 12:29 59.63237 17.95306 129 ft 100 kts
2026-04-25 12:30 59.63805 17.95493 116 ft 60 kts
2026-04-25 12:30 59.64064 17.95551 112 ft 25 kts 357°
2026-04-25 12:30 59.64215 17.95473 109 ft 22 kts 339°
2026-04-25 12:30 59.64361 17.95368 106 ft 22 kts 339°
2026-04-25 12:31 59.64496 17.95335 105 ft 17 kts
2026-04-25 12:31 59.64536 17.95186 103 ft 16 kts 241°
2026-04-25 12:31 59.64478 17.95005 103 ft 15 kts 237°
2026-04-25 12:31 59.64424 17.94837 104 ft 14 kts 238°
2026-04-25 12:32 59.64374 17.94678 103 ft 13 kts 237°
2026-04-25 12:32 59.64326 17.94529 103 ft 13 kts 237°
2026-04-25 12:32 59.64280 17.94388 103 ft 13 kts 238°
2026-04-25 12:32 59.64218 17.94193 104 ft 20 kts 237°
2026-04-25 12:33 59.64135 17.93933 109 ft 23 kts 238°
2026-04-25 12:33 59.64057 17.93680 112 ft 20 kts 238°
2026-04-25 12:33 59.63992 17.93454 112 ft 17 kts 258°
2026-04-25 12:33 59.64010 17.93209 111 ft 19 kts 295°
2026-04-25 12:34 59.64074 17.92978 112 ft 19 kts 298°
2026-04-25 12:34 59.64163 17.92881 112 ft 16 kts
2026-04-25 12:34 59.64222 17.92754 111 ft 9 kts 296°
2026-04-25 12:34 59.64247 17.92719 113 ft 5 kts
2026-04-25 12:35 59.64292 17.92791 112 ft 7 kts 38°
2026-04-25 12:35 59.64335 17.92853 112 ft 6 kts 36°
2026-04-25 12:35 59.64347 17.92869 112 ft 0 kts 36°